| time (UTC) | temp F | wind direction | speed MPH | gust MPH | rain 1hr in | rain 24hr in | rain mn in | humidity % | barometer mb |
| 20260510033513 | 54 | 327 | 0.0 | 1.0 | 0.00 | 0.00 | 0.00 | 88 | 1010.0 |
| 20260510033014 | 54 | 327 | 0.0 | 1.0 | 0.00 | 0.00 | 0.00 | 87 | 1009.9 |
| 20260510032513 | 54 | 327 | 0.0 | 1.0 | 0.00 | 0.00 | 0.00 | 87 | 1009.9 |
| 20260510032016 | 54 | 327 | 0.0 | 0.0 | 0.00 | 0.00 | 0.00 | 87 | 1009.9 |
| 20260510031513 | 54 | 327 | 0.0 | 0.0 | 0.00 | 0.00 | 0.00 | 86 | 1009.9 |
| 20260510031013 | 54 | 327 | 0.0 | 0.0 | 0.00 | 0.00 | 0.00 | 85 | 1009.8 |
| 20260510030519 | 55 | 327 | 0.0 | 0.0 | 0.00 | 0.00 | 0.00 | 85 | 1009.8 |
| 20260510030015 | 55 | 327 | 0.0 | 1.0 | 0.00 | 0.00 | 0.00 | 85 | 1009.8 |
| 20260510025512 | 55 | 327 | 0.0 | 1.0 | 0.00 | 0.00 | 0.00 | 84 | 1009.7 |
| 20260510025014 | 55 | 327 | 0.0 | 0.0 | 0.00 | 0.00 | 0.00 | 84 | 1009.7 |
| 20260510024512 | 55 | 327 | 0.0 | 0.0 | 0.00 | 0.00 | 0.00 | 84 | 1009.7 |
| 20260510024011 | 55 | 327 | 0.0 | 0.0 | 0.00 | 0.00 | 0.00 | 83 | 1009.6 |
| 20260510023511 | 56 | 327 | 0.0 | 0.0 | 0.00 | 0.00 | 0.00 | 82 | 1009.6 |
| 20260510023010 | 56 | 327 | 0.0 | 0.0 | 0.00 | 0.00 | 0.00 | 82 | 1009.6 |
| 20260510022510 | 56 | 326 | 0.0 | 0.0 | 0.00 | 0.00 | 0.00 | 82 | 1009.5 |
| 20260510022010 | 56 | 326 | 0.0 | 0.0 | 0.00 | 0.00 | 0.00 | 81 | 1009.4 |
| 20260510021509 | 57 | 326 | 0.0 | 0.0 | 0.00 | 0.00 | 0.00 | 81 | 1009.4 |
| 20260510021009 | 57 | 326 | 0.0 | 0.0 | 0.00 | 0.00 | 0.00 | 81 | 1009.4 |
| 20260510020509 | 56 | 326 | 0.0 | 0.0 | 0.00 | 0.00 | 0.00 | 81 | 1009.3 |
| 20260510020017 | 56 | 326 | 0.0 | 0.0 | 0.00 | 0.00 | 0.00 | 81 | 1009.3 |
| 20260510015512 | 56 | 326 | 0.0 | 0.0 | 0.00 | 0.00 | 0.00 | 81 | 1009.2 |
| 20260510015012 | 57 | 326 | 0.0 | 0.0 | 0.00 | 0.00 | 0.00 | 81 | 1009.2 |
| 20260510014508 | 57 | 326 | 0.0 | 0.0 | 0.00 | 0.00 | 0.00 | 81 | 1009.0 |
| 20260510014008 | 57 | 326 | 0.0 | 0.0 | 0.00 | 0.00 | 0.00 | 80 | 1009.0 |
| 20260510013508 | 57 | 326 | 0.0 | 0.0 | 0.00 | 0.00 | 0.00 | 80 | 1009.0 |
| 20260510013009 | 57 | 326 | 0.0 | 0.0 | 0.00 | 0.00 | 0.00 | 80 | 1009.0 |
| 20260510012507 | 57 | 326 | 0.0 | 1.0 | 0.00 | 0.00 | 0.00 | 80 | 1008.9 |
| 20260510012007 | 58 | 326 | 0.0 | 1.0 | 0.00 | 0.00 | 0.00 | 80 | 1008.8 |
| 20260510011511 | 58 | 326 | 0.0 | 1.0 | 0.00 | 0.00 | 0.00 | 80 | 1008.7 |
| 20260510011006 | 58 | 326 | 0.0 | 1.0 | 0.00 | 0.00 | 0.00 | 79 | 1008.6 |
| 20260510010506 | 58 | 330 | 0.0 | 1.0 | 0.00 | 0.00 | 0.00 | 79 | 1008.5 |
| 20260510010007 | 58 | 327 | 0.0 | 1.0 | 0.00 | 0.00 | 0.00 | 79 | 1008.3 |
| 20260510005506 | 58 | 314 | 0.0 | 1.0 | 0.00 | 0.00 | 0.00 | 79 | 1008.2 |
| 20260510005005 | 59 | 319 | 0.0 | 0.0 | 0.00 | 0.00 | 0.00 | 79 | 1008.1 |
| 20260510004505 | 59 | 319 | 0.0 | 0.0 | 0.00 | 0.00 | 0.00 | 78 | 1008.0 |
| 20260510004005 | 59 | 319 | 0.0 | 0.0 | 0.00 | 0.00 | 0.00 | 77 | 1008.0 |
| 20260510003505 | 60 | 319 | 0.0 | 0.0 | 0.00 | 0.00 | 0.00 | 77 | 1008.0 |
| 20260510003005 | 60 | 319 | 0.0 | 0.0 | 0.00 | 0.00 | 0.00 | 76 | 1008.0 |
| 20260510002505 | 60 | 319 | 0.0 | 0.0 | 0.00 | 0.00 | 0.00 | 75 | 1008.0 |
| 20260510002004 | 61 | 319 | 0.0 | 0.0 | 0.00 | 0.00 | 0.00 | 74 | 1007.9 |
| 20260510001504 | 61 | 319 | 0.0 | 0.0 | 0.00 | 0.00 | 0.00 | 74 | 1007.9 |
| 20260510001004 | 61 | 319 | 0.0 | 0.0 | 0.00 | 0.00 | 0.00 | 74 | 1007.9 |
| 20260510000504 | 62 | 319 | 0.0 | 0.0 | 0.00 | 0.00 | 0.00 | 73 | 1007.9 |
| 20260510000002 | 62 | 319 | 0.0 | 0.0 | 0.00 | 0.00 | 0.00 | 72 | 1007.9 |
| 20260509235501 | 62 | 319 | 0.0 | 0.0 | 0.00 | 0.00 | 0.00 | 71 | 1007.9 |
| 20260509235001 | 63 | 319 | 0.0 | 1.0 | 0.00 | 0.00 | 0.00 | 70 | 1007.9 |
| 20260509234501 | 63 | 319 | 0.0 | 2.0 | 0.00 | 0.00 | 0.00 | 69 | 1007.8 |
| 20260509234002 | 64 | 312 | 1.0 | 2.0 | 0.00 | 0.00 | 0.00 | 68 | 1007.8 |
| 20260509233602 | 65 | 321 | 1.0 | 2.0 | 0.00 | 0.00 | 0.00 | 68 | 1007.7 |
| 20260509233105 | 65 | 322 | 1.0 | 2.0 | 0.00 | 0.00 | 0.00 | 67 | 1007.7 |
| 20260509232600 | 66 | 322 | 1.0 | 2.0 | 0.00 | 0.00 | 0.00 | 67 | 1007.7 |
| 20260509232101 | 67 | 322 | 1.0 | 1.0 | 0.00 | 0.00 | 0.00 | 65 | 1007.6 |
| 20260509231600 | 68 | 322 | 1.0 | 2.0 | 0.00 | 0.00 | 0.00 | 65 | 1007.5 |
| 20260509231100 | 70 | 322 | 1.0 | 2.0 | 0.00 | 0.00 | 0.00 | 61 | 1007.6 |
| 20260509230601 | 71 | 21 | 1.0 | 1.0 | 0.00 | 0.00 | 0.00 | 59 | 1007.5 |
| 20260509230100 | 72 | 21 | 0.0 | 1.0 | 0.00 | 0.00 | 0.00 | 56 | 1007.4 |
| 20260509225600 | 73 | 22 | 0.0 | 1.0 | 0.00 | 0.00 | 0.00 | 56 | 1007.5 |
| 20260509225058 | 74 | 21 | 0.0 | 1.0 | 0.00 | 0.00 | 0.00 | 50 | 1007.5 |
| 20260509224559 | 75 | 22 | 0.0 | 1.0 | 0.00 | 0.00 | 0.00 | 51 | 1007.4 |
| 20260509224057 | 74 | 21 | 0.0 | 2.0 | 0.00 | 0.00 | 0.00 | 44 | 1007.5 |
| 20260509223557 | 75 | 21 | 0.0 | 2.0 | 0.00 | 0.00 | 0.00 | 44 | 1007.5 |
| 20260509223101 | 75 | 324 | 0.0 | 1.0 | 0.00 | 0.00 | 0.00 | 45 | 1007.6 |
| 20260509222556 | 74 | 324 | 0.0 | 0.0 | 0.00 | 0.00 | 0.00 | 47 | 1007.6 |
| 20260509222057 | 73 | 324 | 0.0 | 1.0 | 0.00 | 0.00 | 0.00 | 50 | 1007.6 |
| 20260509221557 | 73 | 324 | 0.0 | 1.0 | 0.00 | 0.00 | 0.00 | 48 | 1007.7 |
| 20260509221056 | 73 | 324 | 0.0 | 1.0 | 0.00 | 0.00 | 0.00 | 47 | 1007.7 |
| 20260509220556 | 73 | 324 | 0.0 | 1.0 | 0.00 | 0.00 | 0.00 | 47 | 1007.6 |
| 20260509220057 | 73 | 322 | 0.0 | 2.0 | 0.00 | 0.00 | 0.00 | 49 | 1007.7 |
| 20260509215555 | 73 | 326 | 0.0 | 1.0 | 0.00 | 0.00 | 0.00 | 47 | 1007.6 |
| 20260509215055 | 73 | 274 | 0.0 | 3.0 | 0.00 | 0.00 | 0.00 | 47 | 1007.6 |
| 20260509214555 | 73 | 283 | 1.0 | 3.0 | 0.00 | 0.00 | 0.00 | 45 | 1007.6 |
| 20260509214054 | 73 | 307 | 0.0 | 4.0 | 0.00 | 0.00 | 0.00 | 46 | 1007.6 |
| 20260509213554 | 73 | 305 | 0.0 | 4.0 | 0.00 | 0.00 | 0.00 | 46 | 1007.6 |
| 20260509213055 | 73 | 307 | 0.0 | 2.0 | 0.00 | 0.00 | 0.00 | 49 | 1007.6 |
| 20260509212555 | 73 | 285 | 1.0 | 4.0 | 0.00 | 0.00 | 0.00 | 47 | 1007.5 |
| 20260509212053 | 73 | 255 | 1.0 | 4.0 | 0.00 | 0.00 | 0.00 | 46 | 1007.5 |
| 20260509211553 | 73 | 311 | 1.0 | 4.0 | 0.00 | 0.00 | 0.00 | 47 | 1007.5 |
| 20260509211054 | 74 | 293 | 1.0 | 3.0 | 0.00 | 0.00 | 0.00 | 45 | 1007.4 |
| 20260509210554 | 75 | 322 | 0.0 | 2.0 | 0.00 | 0.00 | 0.00 | 44 | 1007.4 |
| 20260509210053 | 74 | 84 | 0.0 | 5.0 | 0.00 | 0.00 | 0.00 | 44 | 1007.4 |
| 20260509205553 | 74 | 295 | 2.0 | 7.0 | 0.00 | 0.00 | 0.00 | 43 | 1007.3 |
| 20260509205050 | 74 | 244 | 2.0 | 7.0 | 0.00 | 0.00 | 0.00 | 46 | 1007.3 |
| 20260509204550 | 73 | 272 | 2.0 | 5.0 | 0.00 | 0.00 | 0.00 | 45 | 1007.3 |
| 20260509204054 | 73 | 304 | 2.0 | 5.0 | 0.00 | 0.00 | 0.00 | 46 | 1007.3 |
| 20260509203550 | 73 | 245 | 1.0 | 5.0 | 0.00 | 0.00 | 0.00 | 49 | 1007.3 |
| 20260509203050 | 72 | 304 | 1.0 | 8.0 | 0.00 | 0.00 | 0.00 | 46 | 1007.3 |
| 20260509202549 | 72 | 269 | 3.0 | 10.0 | 0.00 | 0.00 | 0.00 | 48 | 1007.2 |
| 20260509202053 | 73 | 105 | 4.0 | 10.0 | 0.00 | 0.00 | 0.00 | 46 | 1007.3 |
| 20260509201559 | 73 | 126 | 1.0 | 7.0 | 0.00 | 0.00 | 0.00 | 47 | 1007.3 |
| 20260509201049 | 73 | 252 | 3.0 | 8.0 | 0.00 | 0.00 | 0.00 | 48 | 1007.4 |
| 20260509200547 | 73 | 119 | 4.0 | 8.0 | 0.00 | 0.00 | 0.00 | 46 | 1007.4 |
| 20260509195544 | 73 | 226 | 3.0 | 7.0 | 0.00 | 0.00 | 0.00 | 47 | 1007.5 |
| 20260509195044 | 72 | 185 | 3.0 | 8.0 | 0.00 | 0.00 | 0.00 | 49 | 1007.6 |
| 20260509194543 | 72 | 285 | 3.0 | 8.0 | 0.00 | 0.00 | 0.00 | 50 | 1007.6 |
| 20260509194042 | 71 | 258 | 1.0 | 7.0 | 0.00 | 0.00 | 0.00 | 51 | 1007.6 |
| 20260509193541 | 71 | 147 | 3.0 | 6.0 | 0.00 | 0.00 | 0.00 | 50 | 1007.7 |
| 20260509193054 | 71 | 182 | 1.0 | 8.0 | 0.00 | 0.00 | 0.00 | 52 | 1007.8 |
| 20260509192538 | 70 | 91 | 3.0 | 9.0 | 0.00 | 0.00 | 0.00 | 50 | 1007.9 |
| 20260509192038 | 71 | 114 | 4.0 | 9.0 | 0.00 | 0.00 | 0.00 | 52 | 1007.9 |
| 20260509191540 | 70 | 228 | 3.0 | 11.0 | 0.00 | 0.00 | 0.00 | 53 | 1007.9 |
| 20260509191036 | 71 | 136 | 3.0 | 11.0 | 0.00 | 0.00 | 0.00 | 52 | 1008.0 |
| 20260509190539 | 70 | 193 | 3.0 | 11.0 | 0.00 | 0.00 | 0.00 | 50 | 1008.2 |
| 20260509190037 | 71 | 103 | 6.0 | 11.0 | 0.00 | 0.00 | 0.00 | 50 | 1008.3 |
| 20260509185535 | 71 | 21 | 2.0 | 8.0 | 0.00 | 0.00 | 0.00 | 52 | 1008.3 |
| 20260509185034 | 70 | 50 | 1.0 | 8.0 | 0.00 | 0.00 | 0.00 | 51 | 1008.3 |
| 20260509184540 | 70 | 153 | 4.0 | 8.0 | 0.00 | 0.00 | 0.00 | 51 | 1008.4 |
| 20260509184031 | 70 | 350 | 2.0 | 10.0 | 0.00 | 0.00 | 0.00 | 54 | 1008.5 |
| 20260509183531 | 70 | 46 | 2.0 | 7.0 | 0.00 | 0.00 | 0.00 | 54 | 1008.6 |
| 20260509183029 | 69 | 98 | 0.0 | 5.0 | 0.00 | 0.00 | 0.00 | 53 | 1008.7 |
| 20260509182530 | 69 | 105 | 3.0 | 5.0 | 0.00 | 0.00 | 0.00 | 51 | 1008.8 |
| 20260509182027 | 69 | 90 | 1.0 | 5.0 | 0.00 | 0.00 | 0.00 | 53 | 1008.8 |
| 20260509181527 | 68 | 63 | 2.0 | 6.0 | 0.00 | 0.00 | 0.00 | 52 | 1008.8 |
| 20260509181032 | 68 | 329 | 3.0 | 6.0 | 0.00 | 0.00 | 0.00 | 53 | 1008.7 |
| 20260509180526 | 68 | 65 | 0.0 | 4.0 | 0.00 | 0.00 | 0.00 | 53 | 1008.6 |
| 20260509180028 | 68 | 77 | 1.0 | 5.0 | 0.00 | 0.00 | 0.00 | 53 | 1008.9 |
| 20260509175526 | 68 | 335 | 2.0 | 7.0 | 0.00 | 0.00 | 0.00 | 53 | 1008.9 |
| 20260509175026 | 68 | 7 | 1.0 | 3.0 | 0.00 | 0.00 | 0.00 | 55 | 1008.9 |
| 20260509174522 | 68 | 122 | 0.0 | 3.0 | 0.00 | 0.00 | 0.00 | 52 | 1009.4 |
| 20260509174028 | 68 | 105 | 0.0 | 4.0 | 0.00 | 0.00 | 0.00 | 51 | 1009.3 |
| 20260509173520 | 68 | 101 | 0.0 | 6.0 | 0.00 | 0.00 | 0.00 | 53 | 1009.6 |
| 20260509173021 | 68 | 7 | 2.0 | 6.0 | 0.00 | 0.00 | 0.00 | 52 | 1009.5 |
| 20260509172520 | 68 | 127 | 1.0 | 4.0 | 0.00 | 0.00 | 0.00 | 51 | 1009.7 |
| 20260509172019 | 68 | 58 | 1.0 | 4.0 | 0.00 | 0.00 | 0.00 | 50 | 1009.8 |
| 20260509171528 | 68 | 101 | 0.0 | 3.0 | 0.00 | 0.00 | 0.00 | 50 | 1009.8 |
| 20260509171018 | 68 | 98 | 1.0 | 4.0 | 0.00 | 0.00 | 0.00 | 51 | 1009.8 |
| 20260509170518 | 68 | 157 | 0.0 | 4.0 | 0.00 | 0.00 | 0.00 | 51 | 1009.8 |
| 20260509170017 | 68 | 103 | 1.0 | 6.0 | 0.00 | 0.00 | 0.00 | 52 | 1009.7 |
| 20260509165516 | 68 | 144 | 2.0 | 6.0 | 0.00 | 0.00 | 0.00 | 51 | 1009.7 |
| 20260509165016 | 68 | 124 | 2.0 | 8.0 | 0.00 | 0.00 | 0.00 | 50 | 1009.9 |
| 20260509164515 | 68 | 95 | 3.0 | 8.0 | 0.00 | 0.00 | 0.00 | 55 | 1009.8 |
| 20260509164015 | 68 | 107 | 2.0 | 7.0 | 0.00 | 0.00 | 0.00 | 51 | 1009.9 |
| 20260509163516 | 68 | 116 | 3.0 | 7.0 | 0.00 | 0.00 | 0.00 | 51 | 1009.9 |
| 20260509163013 | 67 | 35 | 2.0 | 6.0 | 0.00 | 0.00 | 0.00 | 54 | 1009.8 |
| 20260509162513 | 66 | 309 | 2.0 | 6.0 | 0.00 | 0.00 | 0.00 | 54 | 1009.8 |
| 20260509162013 | 66 | 234 | 3.0 | 6.0 | 0.00 | 0.00 | 0.00 | 53 | 1010.0 |
| 20260509161512 | 67 | 338 | 2.0 | 5.0 | 0.00 | 0.00 | 0.00 | 53 | 1009.9 |
| 20260509161016 | 67 | 308 | 3.0 | 5.0 | 0.00 | 0.00 | 0.00 | 51 | 1009.8 |
| 20260509160511 | 66 | 101 | 2.0 | 4.0 | 0.00 | 0.00 | 0.00 | 51 | 1009.8 |
| 20260509160017 | 66 | 305 | 2.0 | 4.0 | 0.00 | 0.00 | 0.00 | 53 | 1009.9 |
| 20260509155511 | 66 | 22 | 1.0 | 3.0 | 0.00 | 0.00 | 0.00 | 52 | 1009.9 |
| 20260509155011 | 65 | 46 | 1.0 | 4.0 | 0.00 | 0.00 | 0.00 | 54 | 1009.9 |
| 20260509154509 | 65 | 342 | 2.0 | 5.0 | 0.00 | 0.00 | 0.00 | 52 | 1009.9 |
| 20260509154009 | 65 | 23 | 1.0 | 7.0 | 0.00 | 0.00 | 0.00 | 55 | 1009.9 |
| 20260509153508 | 65 | 322 | 3.0 | 7.0 | 0.00 | 0.00 | 0.00 | 53 | 1009.8 |
| 20260509153009 | 65 | 300 | 1.0 | 5.0 | 0.00 | 0.00 | 0.00 | 55 | 1009.9 |
| 20260509152506 | 65 | 230 | 1.0 | 6.0 | 0.00 | 0.00 | 0.00 | 56 | 1010.0 |
| 20260509152006 | 64 | 188 | 3.0 | 6.0 | 0.00 | 0.00 | 0.00 | 53 | 1009.9 |
| 20260509151505 | 64 | 323 | 2.0 | 6.0 | 0.00 | 0.00 | 0.00 | 53 | 1009.9 |
| 20260509151003 | 64 | 147 | 1.0 | 6.0 | 0.00 | 0.00 | 0.00 | 55 | 1010.1 |
| 20260509150502 | 63 | 291 | 1.0 | 6.0 | 0.00 | 0.00 | 0.00 | 55 | 1010.1 |
| 20260509150002 | 62 | 246 | 3.0 | 6.0 | 0.00 | 0.00 | 0.00 | 55 | 1010.2 |
| 20260509145503 | 62 | 205 | 1.0 | 4.0 | 0.00 | 0.00 | 0.00 | 57 | 1010.2 |
| 20260509145101 | 62 | 338 | 1.0 | 5.0 | 0.00 | 0.00 | 0.00 | 56 | 1010.2 |
| 20260509144709 | 62 | 324 | 1.0 | 5.0 | 0.00 | 0.00 | 0.00 | 56 | 1010.3 |
| 20260509144059 | 61 | 323 | 2.0 | 5.0 | 0.00 | 0.00 | 0.00 | 56 | 1010.3 |
| 20260509143558 | 61 | 328 | 1.0 | 5.0 | 0.00 | 0.00 | 0.00 | 65 | 1010.4 |
| 20260509143058 | 60 | 351 | 3.0 | 5.0 | 0.00 | 0.00 | 0.00 | 57 | 1010.4 |
| 20260509142601 | 61 | 72 | 2.0 | 4.0 | 0.00 | 0.00 | 0.00 | 59 | 1010.5 |
| 20260509142057 | 60 | 356 | 2.0 | 4.0 | 0.00 | 0.00 | 0.00 | 59 | 1010.5 |
| 20260509141556 | 60 | 311 | 1.0 | 7.0 | 0.00 | 0.00 | 0.00 | 59 | 1010.6 |
| 20260509141056 | 59 | 317 | 2.0 | 7.0 | 0.00 | 0.00 | 0.00 | 59 | 1010.6 |
| 20260509140556 | 59 | 345 | 4.0 | 7.0 | 0.00 | 0.00 | 0.00 | 59 | 1010.7 |
| 20260509140059 | 60 | 1 | 2.0 | 4.0 | 0.00 | 0.00 | 0.00 | 58 | 1010.7 |
| 20260509135553 | 59 | 74 | 0.0 | 5.0 | 0.00 | 0.00 | 0.00 | 59 | 1010.9 |
| 20260509135055 | 59 | 94 | 1.0 | 5.0 | 0.00 | 0.00 | 0.00 | 58 | 1010.7 |
| 20260509134552 | 58 | 131 | 1.0 | 4.0 | 0.00 | 0.00 | 0.00 | 59 | 1010.7 |
| 20260509134052 | 58 | 333 | 1.0 | 4.0 | 0.00 | 0.00 | 0.00 | 61 | 1010.7 |
| 20260509133551 | 57 | 125 | 0.0 | 4.0 | 0.00 | 0.00 | 0.00 | 61 | 1010.7 |
| 20260509133052 | 56 | 96 | 0.0 | 4.0 | 0.00 | 0.00 | 0.00 | 63 | 1010.6 |
| 20260509132551 | 56 | 56 | 0.0 | 3.0 | 0.00 | 0.00 | 0.00 | 63 | 1010.6 |
| 20260509132054 | 56 | 39 | 1.0 | 3.0 | 0.00 | 0.00 | 0.00 | 65 | 1010.7 |
| 20260509131550 | 55 | 50 | 1.0 | 2.0 | 0.00 | 0.00 | 0.00 | 63 | 1010.7 |
| 20260509131050 | 55 | 74 | 0.0 | 2.0 | 0.00 | 0.00 | 0.00 | 64 | 1010.7 |
| 20260509130550 | 55 | 73 | 0.0 | 3.0 | 0.00 | 0.00 | 0.00 | 63 | 1010.7 |
| 20260509130052 | 55 | 46 | 0.0 | 3.0 | 0.00 | 0.00 | 0.00 | 62 | 1010.8 |
| 20260509125548 | 55 | 79 | 0.0 | 2.0 | 0.00 | 0.00 | 0.00 | 64 | 1010.8 |
| 20260509125050 | 55 | 79 | 0.0 | 2.0 | 0.00 | 0.00 | 0.00 | 63 | 1010.7 |
| 20260509124604 | 55 | 79 | 0.0 | 3.0 | 0.00 | 0.00 | 0.00 | 64 | 1010.8 |
| 20260509124049 | 55 | 65 | 1.0 | 3.0 | 0.00 | 0.00 | 0.00 | 62 | 1010.8 |
| 20260509123548 | 55 | 352 | 1.0 | 4.0 | 0.00 | 0.00 | 0.00 | 62 | 1010.8 |
| 20260509123048 | 54 | 96 | 0.0 | 6.0 | 0.00 | 0.00 | 0.00 | 62 | 1010.8 |
| 20260509122550 | 54 | 69 | 1.0 | 6.0 | 0.00 | 0.00 | 0.00 | 62 | 1010.7 |
| 20260509122049 | 54 | 72 | 1.0 | 4.0 | 0.00 | 0.00 | 0.00 | 62 | 1010.6 |
| 20260509121550 | 54 | 34 | 0.0 | 5.0 | 0.00 | 0.00 | 0.00 | 63 | 1010.5 |
| 20260509121049 | 54 | 96 | 2.0 | 5.0 | 0.00 | 0.00 | 0.00 | 62 | 1010.4 |
| 20260509120547 | 54 | 100 | 1.0 | 5.0 | 0.00 | 0.00 | 0.00 | 62 | 1010.4 |
| 20260509120052 | 54 | 114 | 1.0 | 6.0 | 0.00 | 0.00 | 0.00 | 62 | 1010.5 |
| 20260509115545 | 54 | 103 | 2.0 | 6.0 | 0.00 | 0.00 | 0.00 | 62 | 1010.5 |
| 20260509115045 | 54 | 101 | 2.0 | 6.0 | 0.00 | 0.00 | 0.00 | 63 | 1010.4 |
| 20260509114545 | 54 | 83 | 2.0 | 6.0 | 0.00 | 0.00 | 0.00 | 63 | 1010.3 |
| 20260509114045 | 54 | 68 | 1.0 | 6.0 | 0.00 | 0.00 | 0.00 | 63 | 1010.2 |
| 20260509113548 | 54 | 104 | 1.0 | 5.0 | 0.00 | 0.00 | 0.00 | 63 | 1010.2 |
| 20260509113045 | 54 | 97 | 1.0 | 3.0 | 0.00 | 0.00 | 0.00 | 63 | 1010.2 |
| 20260509112544 | 54 | 68 | 0.0 | 2.0 | 0.00 | 0.00 | 0.00 | 64 | 1010.2 |
| 20260509112044 | 54 | 86 | 0.0 | 1.0 | 0.00 | 0.00 | 0.00 | 63 | 1010.1 |
| 20260509111544 | 54 | 116 | 0.0 | 1.0 | 0.00 | 0.00 | 0.00 | 65 | 1010.1 |
| 20260509111044 | 54 | 116 | 0.0 | 1.0 | 0.00 | 0.00 | 0.00 | 64 | 1010.0 |
| 20260509110543 | 54 | 116 | 0.0 | 1.0 | 0.00 | 0.00 | 0.00 | 61 | 1010.1 |
| 20260509110043 | 54 | 116 | 0.0 | 2.0 | 0.00 | 0.00 | 0.00 | 62 | 1010.1 |
| 20260509105541 | 54 | 102 | 0.0 | 1.0 | 0.00 | 0.00 | 0.00 | 60 | 1010.0 |
| 20260509105042 | 54 | 101 | 0.0 | 1.0 | 0.00 | 0.00 | 0.00 | 60 | 1010.1 |
| 20260509104541 | 54 | 125 | 0.0 | 5.0 | 0.00 | 0.00 | 0.00 | 61 | 1010.1 |
| 20260509104041 | 54 | 119 | 1.0 | 5.0 | 0.00 | 0.00 | 0.00 | 60 | 1010.1 |
| 20260509103544 | 54 | 106 | 1.0 | 5.0 | 0.00 | 0.00 | 0.00 | 60 | 1010.1 |
| 20260509103045 | 54 | 113 | 2.0 | 5.0 | 0.00 | 0.00 | 0.00 | 60 | 1010.2 |
| 20260509102541 | 54 | 72 | 1.0 | 6.0 | 0.00 | 0.00 | 0.00 | 62 | 1010.2 |
| 20260509102040 | 54 | 76 | 2.0 | 5.0 | 0.00 | 0.00 | 0.00 | 61 | 1010.3 |
| 20260509101539 | 54 | 96 | 1.0 | 4.0 | 0.00 | 0.00 | 0.00 | 61 | 1010.3 |
| 20260509101038 | 54 | 100 | 1.0 | 6.0 | 0.00 | 0.00 | 0.00 | 60 | 1010.3 |
| 20260509100537 | 54 | 90 | 1.0 | 7.0 | 0.00 | 0.00 | 0.00 | 61 | 1010.3 |
| 20260509100049 | 54 | 103 | 1.0 | 7.0 | 0.00 | 0.00 | 0.00 | 60 | 1010.3 |
| 20260509095536 | 54 | 93 | 3.0 | 7.0 | 0.00 | 0.00 | 0.00 | 59 | 1010.3 |
| 20260509095037 | 54 | 129 | 3.0 | 7.0 | 0.00 | 0.00 | 0.00 | 59 | 1010.2 |
| 20260509094536 | 54 | 25 | 1.0 | 6.0 | 0.00 | 0.00 | 0.00 | 59 | 1010.2 |
| 20260509094033 | 54 | 129 | 2.0 | 6.0 | 0.00 | 0.00 | 0.00 | 58 | 1010.3 |
| 20260509093532 | 55 | 120 | 2.0 | 5.0 | 0.00 | 0.00 | 0.00 | 58 | 1010.2 |
| 20260509093034 | 55 | 98 | 2.0 | 7.0 | 0.00 | 0.00 | 0.00 | 58 | 1010.3 |
| 20260509092531 | 55 | 58 | 2.0 | 8.0 | 0.00 | 0.00 | 0.00 | 58 | 1010.3 |
| 20260509092031 | 55 | 91 | 3.0 | 8.0 | 0.00 | 0.00 | 0.00 | 57 | 1010.3 |
| 20260509091530 | 55 | 84 | 2.0 | 6.0 | 0.00 | 0.00 | 0.00 | 57 | 1010.3 |
| 20260509091030 | 55 | 88 | 1.0 | 9.0 | 0.00 | 0.00 | 0.00 | 57 | 1010.4 |
| 20260509090530 | 55 | 88 | 3.0 | 8.0 | 0.00 | 0.00 | 0.00 | 56 | 1010.5 |
| 20260509090027 | 55 | 97 | 3.0 | 7.0 | 0.00 | 0.00 | 0.00 | 56 | 1010.5 |
| 20260509085525 | 55 | 56 | 2.0 | 7.0 | 0.00 | 0.00 | 0.00 | 56 | 1010.5 |
| 20260509085029 | 55 | 132 | 1.0 | 6.0 | 0.00 | 0.00 | 0.00 | 56 | 1010.6 |
| 20260509084530 | 55 | 104 | 1.0 | 7.0 | 0.00 | 0.00 | 0.00 | 56 | 1010.6 |
| 20260509084024 | 55 | 94 | 2.0 | 7.0 | 0.00 | 0.00 | 0.00 | 55 | 1010.5 |
| 20260509083522 | 56 | 87 | 1.0 | 5.0 | 0.00 | 0.00 | 0.00 | 56 | 1010.5 |
| 20260509083022 | 56 | 66 | 1.0 | 5.0 | 0.00 | 0.00 | 0.00 | 55 | 1010.6 |
| 20260509082525 | 56 | 108 | 1.0 | 5.0 | 0.00 | 0.00 | 0.00 | 55 | 1010.6 |
| 20260509082021 | 56 | 87 | 1.0 | 5.0 | 0.00 | 0.00 | 0.00 | 54 | 1010.6 |
| 20260509081530 | 56 | 101 | 2.0 | 4.0 | 0.00 | 0.00 | 0.00 | 53 | 1010.7 |
| 20260509081021 | 56 | 100 | 2.0 | 5.0 | 0.00 | 0.00 | 0.00 | 53 | 1010.6 |
| 20260509080520 | 56 | 121 | 1.0 | 8.0 | 0.00 | 0.00 | 0.00 | 54 | 1010.6 |
| 20260509080018 | 56 | 94 | 3.0 | 8.0 | 0.00 | 0.00 | 0.00 | 53 | 1010.7 |
| 20260509075519 | 56 | 85 | 2.0 | 8.0 | 0.00 | 0.00 | 0.00 | 53 | 1010.8 |
| 20260509075018 | 56 | 108 | 3.0 | 8.0 | 0.00 | 0.00 | 0.00 | 53 | 1010.8 |
| 20260509074518 | 56 | 93 | 2.0 | 9.0 | 0.00 | 0.00 | 0.00 | 54 | 1010.7 |
| 20260509074016 | 56 | 40 | 3.0 | 9.0 | 0.00 | 0.00 | 0.00 | 52 | 1010.8 |
| 20260509073516 | 57 | 51 | 3.0 | 9.0 | 0.00 | 0.00 | 0.00 | 52 | 1010.8 |
| 20260509073016 | 57 | 58 | 4.0 | 9.0 | 0.00 | 0.00 | 0.00 | 52 | 1010.7 |
| 20260509072516 | 57 | 53 | 1.0 | 7.0 | 0.00 | 0.00 | 0.00 | 51 | 1010.8 |
| 20260509072013 | 57 | 88 | 3.0 | 9.0 | 0.00 | 0.00 | 0.00 | 50 | 1010.8 |
| 20260509071518 | 57 | 11 | 3.0 | 10.0 | 0.00 | 0.00 | 0.00 | 51 | 1010.8 |
| 20260509071014 | 57 | 129 | 1.0 | 12.0 | 0.00 | 0.00 | 0.00 | 51 | 1010.9 |
| 20260509070513 | 57 | 122 | 2.0 | 12.0 | 0.00 | 0.00 | 0.00 | 52 | 1010.9 |
| 20260509070012 | 57 | 76 | 3.0 | 8.0 | 0.00 | 0.00 | 0.00 | 51 | 1010.8 |
| 20260509065612 | 57 | 78 | 2.0 | 6.0 | 0.00 | 0.00 | 0.00 | 52 | 1010.8 |
| 20260509065011 | 57 | 96 | 1.0 | 5.0 | 0.00 | 0.00 | 0.00 | 52 | 1010.8 |
| 20260509064512 | 58 | 94 | 0.0 | 5.0 | 0.00 | 0.00 | 0.00 | 52 | 1010.8 |
| 20260509064011 | 58 | 79 | 1.0 | 5.0 | 0.00 | 0.00 | 0.00 | 52 | 1010.8 |
| 20260509063510 | 58 | 90 | 1.0 | 8.0 | 0.00 | 0.00 | 0.00 | 51 | 1010.8 |
| 20260509063010 | 58 | 97 | 2.0 | 8.0 | 0.00 | 0.00 | 0.00 | 50 | 1010.9 |
| 20260509062512 | 58 | 70 | 1.0 | 4.0 | 0.00 | 0.00 | 0.00 | 49 | 1011.0 |
| 20260509062010 | 58 | 96 | 1.0 | 7.0 | 0.00 | 0.00 | 0.00 | 51 | 1010.9 |
| 20260509061509 | 58 | 98 | 2.0 | 7.0 | 0.00 | 0.00 | 0.00 | 49 | 1011.0 |
| 20260509061008 | 58 | 75 | 1.0 | 11.0 | 0.00 | 0.00 | 0.00 | 50 | 1011.0 |
| 20260509060507 | 58 | 85 | 3.0 | 11.0 | 0.00 | 0.00 | 0.00 | 49 | 1011.1 |
| 20260509060006 | 58 | 98 | 4.0 | 11.0 | 0.00 | 0.00 | 0.00 | 50 | 1011.1 |
| 20260509055506 | 58 | 131 | 2.0 | 11.0 | 0.00 | 0.00 | 0.00 | 50 | 1011.1 |
| 20260509055005 | 58 | 78 | 3.0 | 10.0 | 0.00 | 0.00 | 0.00 | 50 | 1011.1 |
| 20260509054507 | 58 | 143 | 0.0 | 5.0 | 0.00 | 0.00 | 0.00 | 51 | 1011.1 |
| 20260509054004 | 58 | 229 | 0.0 | 4.0 | 0.00 | 0.00 | 0.00 | 52 | 1011.2 |
| 20260509053504 | 58 | 238 | 1.0 | 5.0 | 0.00 | 0.00 | 0.00 | 51 | 1011.2 |
| 20260509053006 | 58 | 254 | 2.0 | 8.0 | 0.00 | 0.00 | 0.00 | 50 | 1011.2 |
| 20260509052502 | 58 | 212 | 1.0 | 8.0 | 0.00 | 0.00 | 0.00 | 52 | 1011.3 |
| 20260509052002 | 57 | 217 | 3.0 | 8.0 | 0.00 | 0.00 | 0.00 | 52 | 1011.2 |
| 20260509051502 | 57 | 228 | 3.0 | 7.0 | 0.00 | 0.00 | 0.00 | 52 | 1011.2 |
| 20260509051004 | 57 | 275 | 2.0 | 6.0 | 0.00 | 0.00 | 0.00 | 52 | 1011.3 |
| 20260509050504 | 57 | 195 | 3.0 | 6.0 | 0.00 | 0.00 | 0.00 | 51 | 1011.3 |
| 20260509050102 | 57 | 158 | 1.0 | 10.0 | 0.00 | 0.00 | 0.00 | 51 | 1011.3 |
| 20260509045559 | 58 | 232 | 4.0 | 12.0 | 0.00 | 0.00 | 0.00 | 51 | 1011.3 |
| 20260509045059 | 58 | 178 | 3.0 | 12.0 | 0.00 | 0.00 | 0.00 | 50 | 1011.3 |
| 20260509044559 | 58 | 121 | 2.0 | 10.0 | 0.00 | 0.00 | 0.00 | 51 | 1011.3 |
| 20260509044059 | 58 | 100 | 3.0 | 10.0 | 0.00 | 0.00 | 0.00 | 50 | 1011.3 |
| 20260509043559 | 58 | 155 | 3.0 | 8.0 | 0.00 | 0.00 | 0.00 | 51 | 1011.3 |
| 20260509043110 | 58 | 117 | 1.0 | 8.0 | 0.00 | 0.00 | 0.00 | 51 | 1011.3 |
| 20260509042557 | 58 | 21 | 2.0 | 7.0 | 0.00 | 0.00 | 0.00 | 51 | 1011.3 |
| 20260509042059 | 58 | 76 | 3.0 | 8.0 | 0.00 | 0.00 | 0.00 | 51 | 1011.3 |
| 20260509041557 | 58 | 3 | 1.0 | 7.0 | 0.00 | 0.00 | 0.00 | 51 | 1011.4 |
| 20260509041057 | 58 | 61 | 3.0 | 11.0 | 0.00 | 0.00 | 0.00 | 51 | 1011.3 |
| 20260509040555 | 58 | 31 | 3.0 | 9.0 | 0.00 | 0.00 | 0.00 | 51 | 1011.4 |
| 20260509040056 | 58 | 326 | 3.0 | 9.0 | 0.00 | 0.00 | 0.00 | 51 | 1011.4 |
| 20260509035554 | 57 | 248 | 1.0 | 6.0 | 0.00 | 0.00 | 0.00 | 52 | 1011.4 |
| 20260509035055 | 57 | 251 | 2.0 | 6.0 | 0.00 | 0.00 | 0.00 | 52 | 1011.5 |
| 20260509034602 | 57 | 238 | 2.0 | 6.0 | 0.00 | 0.00 | 0.00 | 51 | 1011.4 |
| 20260509034053 | 57 | 179 | 1.0 | 6.0 | 0.00 | 0.00 | 0.00 | 52 | 1011.4 |